EHI
0 1 3 4 3 3 1 1 1 1 0 0 0 0 0 0 0 0 0 1 2 2 1 0 0 0 1 1 2 3 4 5 5 3 3 3 4 4 3 1 0 0 0
0 1 4 4 3 2 1 1 0 0 0 0 0 0 0 0 0 0 0 0 1 1 0 0 0 1 2 2 2 2 4 5 5 3 2 2 3 4 3 1 0 0 1
0 1 4 4 3 1 1 0 0 0 0 0 0 0 0 0 0 0 0 0 0 0 0 0 0 1 1 1 1 1 3 5 5 3 1 1 2 2 2 1 1 1 2
0 1 2 3 1 0 0 0 0 0 0 0 0 0 0 0 0 0 0 0 0 0 0 0 0 0 0 0 0 1 3 4 3 2 1 0 1 1 1 1 1 3 4
1 1 1 1 1 0 0 0 0 0 0 0 0 0 0 0 0 0 0 0 0 0 0 0 0 0 0 0 0 2 3 2 1 1 0 0 0 0 0 0 2 4 5
1 1 1 0 0 0 0 0 0 0 0 0 0 0 0 0 0 0 0 0 0 0 0 0 0 0 0 0 0 1 2 1 0 0 0 0 1 1 1 1 2 4 5
0 1 1 0 0 0 0 0 0 0 0 0 0 0 0 0 0 0 0 0 0 0 0 0 0 0 0 0 0 0 1 1 0 0 0 0 1 2 2 2 3 4 5
0 1 1 1 0 0 0 0 0 0 0 0 0 0 0 0 0 0 0 0 0 0 0 0 0 0 0 0 0 0 1 2 1 0 0 0 0 1 1 3 4 4 4
0 1 1 1 0 0 0 0 0 0 0 0 0 0 0 0 0 0 0 0 0 0 0 0 0 0 0 0 0 1 2 2 1 0 0 0 0 0 0 1 3 3 3
0 0 0 0 0 0 0 0 0 0 0 0 0 0 0 0 0 0 0 0 0 0 0 0 0 0 0 0 0 1 1 1 0 0 0 0 0 0 0 1 2 3 3
0 0 0 0 0 0 0 0 0 0 0 0 0 0 0 0 0 0 0 0 0 0 0 0 0 0 0 0 0 0 0 0 0 0 0 0 0 0 0 0 1 3 3
0 0 0 0 0 0 0 0 0 0 0 0 0 0 0 0 0 0 0 0 0 0 0 0 0 0 0 0 0 0 0 0 0 0 0 0 0 0 0 0 1 2 2
0 0 0 0 0 0 0 0 0 0 0 0 0 0 0 0 0 0 0 0 0 0 0 0 0 0 0 0 0 0 0 0 0 0 0 0 0 0 0 0 0 1 1
0 0 0 0 0 0 0 0 0 0 0 0 0 0 0 0 0 0 0 0 0 0 0 0 0 0 0 0 0 0 0 0 0 0 0 0 0 0 0 1 0 0 0
0 0 0 0 0 0 0 0 0 0 0 0 0 0 0 0 0 0 0 0 0 0 0 0 0 0 0 0 0 0 0 0 0 0 0 0 0 0 0 0 0 0 0
0 0 0 0 0 0 0 0 0 0 0 0 0 0 0 0 0 0 0 0 0 0 0 0 0 0 0 0 0 0 0 0 0 0 0 0 0 0 0 0 0 0 0
0 0 0 0 0 0 0 0 0 0 0 0 0 0 0 0 0 0 0 0 0 0 0 0 0 0 0 0 0 0 0 0 0 0 0 0 0 0 0 0 0 0 0
0 0 0 0 0 0 0 0 0 0 0 0 0 0 0 0 0 0 0 0 0 0 0 0 0 0 0 0 0 0 0 0 0 0 0 0 0 0 0 0 0 0 0
1 1 0 0 0 0 0 0 0 0 0 0 0 0 0 0 0 0 0 0 0 0 0 0 0 0 0 0 0 0 0 0 0 0 0 0 0 0 0 0 0 0 0
1 1 0 0 0 0 0 0 0 0 0 0 0 0 0 0 0 0 0 0 0 0 0 0 0 0 0 0 0 0 0 0 0 0 0 0 0 0 0 0 0 0 0
1 0 0 0 0 0 0 0 0 0 0 0 0 0 0 0 0 0 0 0 0 0 0 0 0 0 0 0 0 0 0 0 0 0 0 0 0 0 0 0 0 0 0
1 0 0 0 0 0 0 0 0 0 0 0 0 0 0 0 0 0 0 0 0 0 0 0 0 0 0 0 0 0 0 0 0 0 0 0 0 0 0 0 0 0 0
0 0 0 0 0 0 0 0 0 0 0 0 0 0 0 0 0 0 0 0 0 0 0 0 0 0 0 0 0 0 0 0 0 0 0 0 0 0 0 0 0 0 0
0 0 0 0 0 0 0 0 0 0 0 0 0 0 0 0 0 0 0 0 0 0 0 0 0 0 0 0 0 0 0 0 0 0 0 0 0 0 0 0 0 0 0
0 0 0 0 0 0 0 0 0 0 0 0 0 1 1 0 0 0 0 0 0 0 0 0 0 0 0 0 0 0 0 0 0 0 0 0 0 0 0 0 0 0 0
0 0 0 0 0 0 0 0 0 0 0 0 1 2 2 1 0 0 0 0 0 0 0 0 0 0 0 0 0 0 0 0 0 0 0 0 0 0 0 0 0 0 0
Wind_Speed
5 7 9 9 9 10 10 10 10 10 10 9 10 10 10 10 9 10 10 10 10 10 9 10 10 11 11 11 10 10 10 9 9 9 9 9 8 8 8 7 7 5 9
7 8 10 10 10 9 9 9 9 9 9 9 9 10 10 9 9 9 9 9 9 9 10 10 11 11 11 10 10 10 9 8 8 7 7 7 8 8 8 9 8 6 9
8 8 9 9 9 9 9 9 9 9 9 10 9 9 9 9 9 9 9 9 9 9 10 10 10 10 10 10 10 9 8 6 6 4 4 3 6 9 9 9 9 8 8
9 8 9 9 9 9 9 9 9 9 9 9 9 9 9 9 8 8 9 9 9 9 10 9 9 10 10 9 9 8 7 6 5 5 4 5 5 9 9 9 9 8 9
9 9 9 9 9 8 9 9 9 9 9 9 9 10 9 9 8 8 9 9 9 9 9 9 9 9 9 9 8 7 6 6 6 5 5 6 5 9 9 9 9 8 8
9 9 8 9 9 8 8 8 8 8 8 9 9 10 10 9 9 8 9 9 9 9 9 9 8 8 8 8 8 7 7 6 6 5 5 5 5 9 10 9 9 9 9
8 8 8 9 8 8 8 7 7 7 8 9 9 9 9 9 9 9 9 9 9 9 8 8 8 8 8 7 7 6 7 7 4 5 6 6 7 10 10 10 10 9 9
7 8 8 8 8 8 8 8 8 8 8 9 9 8 8 9 9 8 9 9 9 9 8 8 8 7 7 7 6 6 7 7 6 7 6 5 9 11 11 11 11 10 10
5 6 6 7 7 8 8 8 8 8 8 8 8 7 7 8 8 8 9 9 9 8 8 7 7 7 7 6 5 6 7 8 5 4 7 5 10 11 11 11 10 10 11
4 4 4 5 6 6 6 8 8 8 7 6 6 6 6 6 7 7 8 9 9 8 7 7 6 6 5 4 4 5 6 7 5 6 5 6 11 11 11 11 11 11 11
4 2 2 3 4 4 5 7 6 7 6 5 4 5 4 2 4 5 8 8 8 7 6 5 5 4 4 3 2 3 4 3 6 5 5 9 11 11 12 12 11 11 11
4 2 2 3 4 4 4 4 3 3 3 2 3 3 1 2 3 5 6 7 6 5 3 3 4 3 1 1 2 3 2 5 5 5 6 11 11 11 11 11 11 11 11
4 3 2 2 4 4 3 3 2 2 1 2 3 3 3 3 2 3 2 3 2 2 1 1 1 1 2 2 3 3 4 5 4 4 6 11 11 11 11 11 11 11 11
4 2 1 2 4 5 3 3 2 2 1 2 2 3 2 2 2 2 2 2 1 1 1 1 2 3 4 5 5 5 5 4 4 3 5 11 11 10 10 11 11 11 11
4 2 2 3 4 4 4 2 3 2 2 3 2 2 3 2 2 2 2 2 2 2 2 3 4 5 5 5 5 5 5 5 6 5 4 11 11 11 11 11 12 11 11
4 3 3 3 4 4 3 3 3 3 2 3 2 3 3 2 2 2 3 3 3 2 2 3 4 4 4 4 4 5 4 4 5 5 4 6 10 11 10 11 12 11 11
4 4 3 4 4 4 4 4 3 2 3 3 2 3 3 2 2 3 3 3 2 2 3 3 4 3 3 4 4 4 4 3 4 5 5 4 5 9 11 11 11 10 10
5 5 4 4 4 5 4 4 3 3 3 3 2 2 3 3 4 4 3 2 2 3 3 2 3 3 3 3 3 3 3 3 4 4 4 4 3 4 7 10 10 10 10
5 5 5 4 4 4 3 2 2 2 3 2 2 2 3 3 4 4 2 2 3 3 2 3 3 3 3 2 2 3 3 3 3 4 4 4 4 4 3 6 9 9 10
4 5 6 4 3 4 2 2 2 3 2 2 2 2 3 2 3 4 2 3 4 3 3 3 3 3 2 1 3 4 3 3 3 4 4 4 4 4 4 3 3 6 10
4 5 6 5 4 4 2 2 2 2 2 2 2 3 3 2 3 3 3 3 3 3 2 3 2 2 2 2 2 2 3 4 4 3 3 4 5 4 4 4 3 4 4
4 4 5 4 4 4 2 1 1 2 1 2 2 2 3 3 3 3 3 3 3 2 2 2 2 2 1 1 1 1 1 2 2 3 3 4 4 4 5 6 5 5 4
5 4 4 4 4 4 3 1 2 2 1 2 2 2 2 2 3 3 3 2 3 2 2 2 2 2 1 1 1 1 2 1 1 2 3 3 3 3 4 4 5 5 6
5 4 4 4 4 4 3 2 2 1 1 2 1 1 1 2 2 2 2 2 2 2 2 1 2 1 1 1 1 1 1 2 2 1 2 2 3 4 4 4 5 5 5
6 4 3 3 4 3 2 2 1 1 1 1 1 2 2 2 2 2 1 2 2 2 3 3 3 2 1 1 1 1 2 2 1 2 1 1 2 2 3 3 4 4 4
6 4 3 3 3 3 3 2 2 2 1 2 2 2 1 1 1 2 2 2 2 3 3 3 2 3 2 2 2 2 2 2 1 2 2 1 1 1 2 2 3 2 3
Wind_Direction
82 85 73 67 67 65 60 59 61 61 62 64 65 68 71 74 76 73 70 72 70 70 71 75 74 73 76 76 76 74 74 75 78 80 81 81 78 73 69 65 69 72 80
92 89 79 73 72 69 67 64 63 62 63 66 68 71 74 76 76 75 76 75 73 71 71 75 76 75 75 74 74 73 72 71 72 76 81 80 79 75 70 67 67 73 78
96 96 86 76 73 70 69 67 66 65 64 66 71 73 76 77 78 79 77 76 76 74 73 75 76 78 76 73 71 68 64 59 54 53 68 81 84 78 74 73 73 74 79
93 89 83 79 74 70 71 69 69 68 67 69 71 75 77 77 76 78 80 79 79 78 77 75 75 78 78 74 69 63 54 42 32 29 54 63 71 80 78 76 75 76 79
91 91 88 83 77 71 70 72 71 71 73 75 75 79 82 79 78 79 79 79 79 83 81 78 80 76 75 71 64 55 42 29 32 38 65 65 65 77 77 76 74 77 81
98 98 95 88 80 74 71 73 73 75 78 79 81 83 82 82 80 78 79 79 77 81 83 81 80 76 75 69 59 44 28 24 28 57 65 72 72 73 74 75 75 76 77
101 105 105 97 90 84 77 74 75 82 88 86 84 85 84 83 80 78 79 79 76 76 79 78 76 74 71 66 58 40 28 34 48 67 66 67 72 73 74 73 74 76 77
99 108 112 111 106 96 86 80 83 86 90 92 89 87 88 85 85 86 87 86 82 79 80 80 79 75 73 68 58 41 31 32 56 72 75 69 75 73 73 72 72 72 72
94 110 122 132 125 112 102 94 93 96 98 98 98 98 98 95 92 91 88 86 85 84 83 83 84 79 75 68 57 41 34 42 44 53 71 69 74 71 70 72 74 73 74
81 88 117 124 129 133 123 112 110 111 113 112 116 118 121 116 108 99 92 88 87 86 88 90 90 87 89 76 55 39 39 39 53 59 60 70 72 71 70 74 75 74 73
88 70 75 101 114 117 124 124 135 131 132 140 142 143 140 135 117 101 94 96 94 94 94 102 109 110 110 96 67 45 50 64 67 64 54 64 69 71 71 73 74 72 70
112 104 84 86 100 99 90 110 130 117 132 133 103 116 133 89 80 91 101 105 105 103 104 119 133 142 143 114 81 68 57 69 69 72 66 67 69 71 73 74 73 71 70
114 91 90 108 100 91 88 92 74 78 94 86 90 84 78 83 101 105 118 114 112 113 83 117 143 121 99 81 76 71 68 69 67 64 64 70 72 74 75 76 75 73 71
111 106 92 82 97 98 84 84 98 87 74 67 57 80 73 66 70 78 90 102 117 104 66 54 55 56 64 58 64 66 71 76 77 76 65 68 69 73 75 75 75 74 72
120 101 77 81 80 91 84 69 84 77 67 75 43 63 81 80 79 78 81 82 78 68 66 57 57 55 60 56 62 65 69 81 88 86 70 70 67 69 72 75 74 71 68
126 107 73 73 66 80 94 87 68 65 64 60 44 40 65 80 85 79 64 60 66 63 63 72 82 73 68 63 62 63 61 77 95 99 96 78 73 70 68 72 71 70 67
124 119 101 82 69 64 65 66 72 67 69 60 46 30 57 65 81 87 78 69 70 68 64 64 75 75 78 73 67 69 61 54 85 99 103 100 82 70 69 69 68 68 67
122 114 104 89 84 70 63 56 63 55 56 54 45 27 51 57 65 71 66 67 64 71 73 76 69 71 65 61 61 62 70 54 66 88 97 99 96 88 75 74 71 68 65
133 127 119 98 87 81 75 83 72 65 61 54 36 35 40 53 74 86 70 69 74 68 63 74 70 67 72 69 87 73 64 56 47 67 75 86 92 97 93 85 78 72 67
134 130 120 109 101 94 69 70 66 55 54 56 45 50 45 40 63 82 86 76 73 68 56 64 76 72 82 78 83 82 75 76 54 49 58 64 68 80 92 96 96 82 74
141 132 128 140 132 111 82 83 87 75 58 54 44 49 40 48 65 74 75 80 80 82 75 78 82 79 72 90 83 73 56 68 69 63 59 61 51 54 73 78 92 99 86
140 136 142 143 132 123 124 130 123 108 92 91 52 48 36 40 56 72 83 93 91 92 75 64 78 74 37 62 104 113 93 38 36 67 72 69 62 47 48 63 75 83 85
150 152 146 142 136 131 126 90 74 71 62 79 79 63 36 46 49 48 62 91 106 103 95 77 70 77 41 3 61 93 108 119 87 31 65 76 72 58 49 48 60 69 80
153 151 150 146 135 124 124 114 124 137 114 107 110 117 97 88 73 54 40 61 93 95 105 108 93 79 74 15 8 36 80 120 129 93 26 54 74 65 56 55 58 64 72
148 146 145 141 128 125 132 130 152 124 112 105 101 110 87 88 88 85 46 49 70 89 91 77 78 57 65 63 38 34 38 40 62 117 113 63 59 59 68 65 66 64 74
138 138 143 136 135 140 152 163 170 141 127 122 129 117 91 97 91 85 68 55 65 68 77 76 80 68 55 53 49 56 63 60 42 79 111 122 103 74 83 78 80 74 78